Wilkerson Pass, CO

3:59 PM MDT on April 23, 2017 (GMT -0600)
Wilkerson Pass

Weather History for K4BM - December, 2013

Change the Weather History Date:

Sunday, December 15, 2013

  Actual Average (KAFF) Record (KAFF)
Temperature  
Mean Temperature 27 °F -  
Max Temperature 35 °F 40 °F 62 °F (2006)
Min Temperature 19 °F 17 °F -6 °F (2008)
Degree Days  
Heating Degree Days 38    
Moisture  
Dew Point 7 °F    
Average Humidity 48    
Maximum Humidity 74    
Minimum Humidity 18    
Precipitation  
Precipitation 0.00 in - - ()
Sea Level Pressure  
Sea Level Pressure 30.31 in    
Wind  
Wind Speed 11 mph (West)    
Max Wind Speed 20 mph    
Max Gust Speed 40 mph    
Visibility 10 miles    
Events      
Averages and records for this station are not official NWS values.
T = Trace of Precipitation, MM = Missing Value Source: NWS Daily Summary

Daily Weather History Graph

Daily Weather History Graph

Search for Another Location

Airport or City:

Trip Planner

Search our weather history database for the weather conditions in past years. The results will help you decide how hot, cold, wet, or windy it might be!

Date:

Astronomy

Dec. 15, 2013 Rise Set
Actual Time 7:14 AM MST 4:40 PM MST
Civil Twilight 6:44 AM MST 5:10 PM MST
Nautical Twilight 6:10 AM MST 5:44 PM MST
Astronomical Twilight 5:38 AM MST 6:16 PM MST
Moon 3:46 PM MST (12/15) 5:33 AM MST (12/15)
Length of Visible Light 10h 26m
Length of Day
9h 26m
Waxing Gibbous, 98% of the Moon is Illuminated
Dec 15
Waxing Gibbous
Dec 17
Full
Dec 25
Last Quarter
Jan 1
New
Jan 7
First Quarter

Hourly Weather History & Observations

Time (MST) Temp. Windchill Dew Point Humidity Pressure Visibility Wind Dir Wind Speed Gust Speed Precip Events Conditions
12:01 AM 23.0 °F 11.7 °F 12.2 °F 63% 30.25 in 10.0 mi West 11.5 mph 21.9 mph N/A   Clear
12:21 AM 21.2 °F 8.9 °F 12.2 °F 68% 30.24 in 10.0 mi West 12.7 mph 23.0 mph N/A   Clear
12:41 AM 21.2 °F 8.9 °F 12.2 °F 68% 30.24 in 10.0 mi West 12.7 mph 20.7 mph N/A   Clear
1:01 AM 21.2 °F 8.3 °F 12.2 °F 68% 30.24 in 10.0 mi West 13.8 mph 23.0 mph N/A   Clear
1:20 AM 21.2 °F 8.3 °F 12.2 °F 68% 30.24 in 10.0 mi West 13.8 mph 23.0 mph N/A   Clear
1:40 AM 21.2 °F 8.9 °F 12.2 °F 68% 30.24 in 10.0 mi WNW 12.7 mph 21.9 mph N/A   Clear
2:01 AM 21.2 °F 8.3 °F 10.4 °F 63% 30.24 in 10.0 mi West 13.8 mph 23.0 mph N/A   Clear
2:21 AM 21.2 °F 8.3 °F 10.4 °F 63% 30.24 in 10.0 mi West 13.8 mph 28.8 mph N/A   Clear
2:41 AM 21.2 °F 9.5 °F 10.4 °F 63% 30.25 in 10.0 mi NW 11.5 mph 25.3 mph N/A   Clear
3:01 AM 21.2 °F 9.5 °F 10.4 °F 63% 30.25 in 10.0 mi WNW 11.5 mph 26.5 mph N/A   Clear
3:21 AM 23.0 °F 12.4 °F 8.6 °F 54% 30.25 in 10.0 mi West 10.4 mph 26.5 mph N/A   Clear
3:41 AM 19.4 °F 12.8 °F 8.6 °F 63% 30.24 in 10.0 mi NW 4.6 mph - N/A   Clear
4:01 AM 21.2 °F 13.6 °F 8.6 °F 58% 30.23 in 10.0 mi West 5.8 mph - N/A   Clear
4:20 AM 23.0 °F 13.1 °F 8.6 °F 54% 30.24 in 10.0 mi NNW 9.2 mph 19.6 mph N/A   Clear
4:40 AM 24.8 °F 12.9 °F 8.6 °F 50% 30.23 in 10.0 mi WNW 13.8 mph 24.2 mph N/A   Scattered Clouds
5:01 AM 21.2 °F 6.0 °F 8.6 °F 58% 30.25 in 10.0 mi NNW 19.6 mph 31.1 mph N/A   Clear
5:21 AM 23.0 °F 9.2 °F 10.4 °F 59% 30.23 in 10.0 mi WNW 17.3 mph 33.4 mph N/A   Clear
5:41 AM 23.0 °F 8.7 °F 10.4 °F 59% 30.22 in 10.0 mi WNW 18.4 mph 40.3 mph N/A   Scattered Clouds
6:01 AM 23.0 °F 8.7 °F 10.4 °F 59% 30.26 in 10.0 mi WNW 18.4 mph 31.1 mph N/A   Scattered Clouds
6:21 AM 21.2 °F 7.8 °F 12.2 °F 68% 30.24 in 10.0 mi West 15.0 mph 33.4 mph N/A   Scattered Clouds
6:40 AM 23.0 °F 18.4 °F 12.2 °F 63% 30.28 in 10.0 mi SSW 3.5 mph - N/A   Clear
7:00 AM 21.2 °F 12.6 °F 12.2 °F 68% 30.28 in 10.0 mi West 6.9 mph - N/A   Clear
7:20 AM 19.4 °F 7.9 °F 12.2 °F 74% 30.27 in 10.0 mi WSW 10.4 mph - N/A   Clear
7:40 AM 19.4 °F 11.5 °F 12.2 °F 74% 30.28 in 10.0 mi SW 5.8 mph 17.3 mph N/A   Clear
8:00 AM 21.2 °F 14.9 °F 12.2 °F 68% 30.31 in 10.0 mi SSW 4.6 mph 18.4 mph N/A   Clear
8:21 AM 23.0 °F 10.1 °F 10.4 °F 59% 30.30 in 10.0 mi NW 15.0 mph 27.6 mph N/A   Clear
8:40 AM 24.8 °F 11.9 °F 10.4 °F 54% 30.32 in 10.0 mi NW 16.1 mph 28.8 mph N/A   Clear
9:00 AM 24.8 °F 14.0 °F 10.4 °F 54% 30.33 in 10.0 mi NNW 11.5 mph 25.3 mph N/A   Clear
9:20 AM 26.6 °F - 10.4 °F 51% 30.33 in 10.0 mi Calm Calm - N/A   Clear
9:40 AM 26.6 °F 21.2 °F 10.4 °F 51% 30.34 in 10.0 mi West 4.6 mph - N/A   Clear
10:00 AM 26.6 °F 19.1 °F 14.0 °F 59% 30.35 in 10.0 mi WSW 6.9 mph 19.6 mph N/A   Clear
10:20 AM 26.6 °F 20.0 °F 14.0 °F 59% 30.35 in 10.0 mi WSW 5.8 mph - N/A   Clear
10:40 AM 28.4 °F 19.7 °F 12.2 °F 51% 30.35 in 10.0 mi West 9.2 mph 16.1 mph N/A   Clear
11:00 AM 30.2 °F 22.6 °F 5.0 °F 34% 30.35 in 10.0 mi NNW 8.1 mph 24.2 mph N/A   Clear
11:20 AM 30.2 °F 22.6 °F 8.6 °F 40% 30.35 in 10.0 mi NNW 8.1 mph - N/A   Clear
11:41 AM 32.0 °F 24.8 °F 8.6 °F 38% 30.34 in 10.0 mi West 8.1 mph 20.7 mph N/A   Clear
12:00 PM 32.0 °F 24.2 °F 3.2 °F 30% 30.34 in 10.0 mi West 9.2 mph 26.5 mph N/A   Clear
12:21 PM 32.0 °F 22.1 °F 3.2 °F 30% 30.33 in 10.0 mi WNW 13.8 mph 27.6 mph N/A   Clear
12:40 PM 33.8 °F 25.8 °F 1.4 °F 25% 30.33 in 10.0 mi WNW 10.4 mph 31.1 mph N/A   Clear
1:00 PM 33.8 °F 24.3 °F 1.4 °F 25% 30.33 in 10.0 mi WNW 13.8 mph 27.6 mph N/A   Clear
1:20 PM 35.6 °F 26.6 °F -0.4 °F 22% 30.33 in 10.0 mi NW 13.8 mph 26.5 mph N/A   Clear
1:41 PM 35.6 °F 26.6 °F -4.0 °F 18% 30.33 in 10.0 mi NW 13.8 mph 36.8 mph N/A   Clear
2:00 PM 33.8 °F 26.4 °F -4.0 °F 20% 30.34 in 10.0 mi WNW 9.2 mph 26.5 mph N/A   Clear
2:20 PM 33.8 °F 25.8 °F -4.0 °F 20% 30.34 in 10.0 mi NW 10.4 mph 20.7 mph N/A   Clear
2:40 PM 33.8 °F - -4.0 °F 20% 30.36 in 10.0 mi Calm Calm - N/A   Clear
3:01 PM 33.8 °F 30.8 °F -2.2 °F 22% 30.36 in 10.0 mi NW 3.5 mph - N/A   Clear
3:21 PM 33.8 °F 25.8 °F -4.0 °F 20% 30.36 in 10.0 mi WNW 10.4 mph 21.9 mph N/A   Clear
3:41 PM 32.0 °F 24.8 °F -4.0 °F 21% 30.37 in 10.0 mi NW 8.1 mph 20.7 mph N/A   Clear
4:01 PM 32.0 °F 25.6 °F -2.2 °F 23% 30.38 in 10.0 mi WNW 6.9 mph - N/A   Clear
4:21 PM 30.2 °F 25.4 °F -0.4 °F 27% 30.38 in 10.0 mi WNW 4.6 mph - N/A   Clear
4:40 PM 30.2 °F 24.3 °F 1.4 °F 29% 30.37 in 10.0 mi West 5.8 mph - N/A   Clear
5:01 PM 30.2 °F 23.4 °F 1.4 °F 29% 30.38 in 10.0 mi WSW 6.9 mph - N/A   Clear
5:20 PM 28.4 °F 22.2 °F 3.2 °F 34% 30.38 in 10.0 mi WSW 5.8 mph - N/A   Clear
5:40 PM 28.4 °F 22.2 °F 3.2 °F 34% 30.37 in 10.0 mi WSW 5.8 mph - N/A   Clear
6:00 PM 28.4 °F 21.2 °F 5.0 °F 37% 30.37 in 10.0 mi West 6.9 mph - N/A   Clear
6:20 PM 26.6 °F 20.0 °F 5.0 °F 40% 30.37 in 10.0 mi SW 5.8 mph - N/A   Clear
6:40 PM 26.6 °F 18.2 °F 6.8 °F 43% 30.37 in 10.0 mi SW 8.1 mph - N/A   Clear
6:59 PM 24.8 °F 16.9 °F 8.6 °F 50% 30.37 in 10.0 mi WSW 6.9 mph - N/A   Clear
7:20 PM 24.8 °F 16.9 °F 8.6 °F 50% 30.35 in 10.0 mi SW 6.9 mph - N/A   Clear
7:40 PM 23.0 °F 11.7 °F 8.6 °F 54% 30.32 in 10.0 mi WSW 11.5 mph 20.7 mph N/A   Clear
7:59 PM 23.0 °F 13.1 °F 6.8 °F 50% 30.37 in 10.0 mi WNW 9.2 mph 16.1 mph N/A   Clear
8:20 PM 24.8 °F 16.1 °F 5.0 °F 43% 30.37 in 10.0 mi West 8.1 mph 17.3 mph N/A   Clear
8:40 PM 23.0 °F 14.7 °F 6.8 °F 50% 30.37 in 10.0 mi West 6.9 mph - N/A   Clear
9:00 PM 23.0 °F 15.8 °F 8.6 °F 54% 30.35 in 10.0 mi WSW 5.8 mph - N/A   Clear
9:20 PM 23.0 °F 14.7 °F 8.6 °F 54% 30.35 in 10.0 mi SW 6.9 mph - N/A   Clear
9:40 PM 23.0 °F 12.4 °F 8.6 °F 54% 30.33 in 10.0 mi West 10.4 mph 23.0 mph N/A   Clear
10:00 PM 23.0 °F 11.1 °F 6.8 °F 50% 30.33 in 10.0 mi West 12.7 mph 19.6 mph N/A   Clear
10:20 PM 23.0 °F 13.1 °F 8.6 °F 54% 30.34 in 10.0 mi WNW 9.2 mph 17.3 mph N/A   Clear
10:39 PM 23.0 °F 10.1 °F 8.6 °F 54% 30.32 in 10.0 mi West 15.0 mph 23.0 mph N/A   Clear
11:01 PM 26.6 °F 14.3 °F 10.4 °F 51% 30.31 in 10.0 mi WNW 16.1 mph 28.8 mph N/A   Clear
11:21 PM 26.6 °F 14.7 °F 12.2 °F 55% 30.31 in 10.0 mi WNW 15.0 mph 38.0 mph N/A   Clear
11:41 PM 26.6 °F 16.8 °F 14.0 °F 59% 30.33 in 10.0 mi West 10.4 mph 27.6 mph N/A   Clear